Location: Sigmaringen
(48.0900°N, 9.2120°E)
Time: 09:59:40
(UTC+02:00)

ISS - Pass Details

Date: 14 February 2018
Orbit: 402 x 406 km, 51.6° (Epoch: 18 June)

Event Time Altitude Azimuth Distance (km) Brightness Sun altitude
Rises 18:21:09 0° 284° (WNW) 2,320 1.4 -6.9°
Reaches altitude 10° 18:23:52 10° 259° (W) 1,456 0.8 -7.3°
Maximum altitude 18:25:46 15° 224° (SW) 1,204 -0.6 -7.6°
Drops below altitude 10° 18:27:40 10° 188° (S) 1,451 -0.8 -7.9°
Sets 18:30:23 0° 163° (SSE) 2,307 -0.1 -8.4°
